Deming, NM

3:38 AM MDT on April 19, 2018 (GMT -0600)
Deming Municipal

Weather History for KDMN - June, 2013

Change the Weather History Date:

Friday, June 14, 2013

  Actual Average Record
Temperature  
Mean Temperature 83 °F 77 °F  
Max Temperature 99 °F 96 °F 105 °F (1956)
Min Temperature 67 °F 59 °F 42 °F (1962)
Cooling Degree Days 18    
Growing Degree Days 33 (Base 50)    
Moisture  
Dew Point 47 °F    
Average Humidity 32    
Maximum Humidity 53    
Minimum Humidity 11    
Precipitation  
Precipitation 0.00 in 0.01 in 0.37 in (1991)
Month to date precipitation T 0.10  
Year to date precipitation 0.51 2.51  
Sea Level Pressure  
Sea Level Pressure 29.74 in    
Wind  
Wind Speed 5 mph (ENE)    
Max Wind Speed 14 mph    
Max Gust Speed 23 mph    
Visibility 10 miles    
Events Rain    
T = Trace of Precipitation, MM = Missing Value Source: NWS Daily Summary

Daily Weather History Graph

Daily Weather History Graph

Search for Another Location

Airport or City:

Astronomy

Jun. 14, 2013 Rise Set
Actual Time 6:03 AM MDT 8:18 PM MDT
Civil Twilight 5:35 AM MDT 8:47 PM MDT
Nautical Twilight 5:00 AM MDT 9:21 PM MDT
Astronomical Twilight 4:23 AM MDT 9:59 PM MDT
Moon 11:25 AM MDT (6/14) No Moon Set
Length of Visible Light 15h 11m
Length of Day
14h 15m
Waxing Crescent, 31% of the Moon is Illuminated
Jun 14
Waxing Crescent
Jun 16
First Quarter
Jun 23
Full
Jun 29
Last Quarter
Jul 8
New

Hourly Weather History & Observations

Time (MDT) Temp. Heat Index Dew Point Humidity Pressure Visibility Wind Dir Wind Speed Gust Speed Precip Events Conditions
12:53 AM 78.1 °F - 54.0 °F 43% 29.76 in 10.0 mi NNE 4.6 mph - N/A   Clear
1:53 AM 78.1 °F - 53.1 °F 42% 29.73 in 10.0 mi Calm Calm - N/A   Clear
2:53 AM 75.0 °F - 52.0 °F 44% 29.73 in 10.0 mi North 3.5 mph - N/A   Clear
3:53 AM 73.0 °F - 50.0 °F 44% 29.74 in 10.0 mi NE 3.5 mph - N/A   Clear
4:53 AM 71.1 °F - 50.0 °F 47% 29.75 in 10.0 mi ENE 5.8 mph - N/A   Clear
5:53 AM 68.0 °F - 50.0 °F 52% 29.76 in 10.0 mi WNW 3.5 mph - N/A   Clear
6:53 AM 70.0 °F - 51.1 °F 51% 29.79 in 10.0 mi NE 4.6 mph - N/A   Clear
7:53 AM 73.9 °F - 54.0 °F 50% 29.79 in 10.0 mi East 6.9 mph - N/A   Clear
8:53 AM 77.0 °F - 51.1 °F 40% 29.81 in 10.0 mi Calm Calm - N/A   Clear
9:53 AM 81.0 °F - 51.1 °F 35% 29.79 in 10.0 mi Variable 3.5 mph - N/A   Clear
10:53 AM 84.0 °F - 48.9 °F 29% 29.78 in 10.0 mi ENE 6.9 mph - N/A   Clear
11:53 AM 87.1 °F - 48.0 °F 26% 29.76 in 10.0 mi SSW 3.5 mph - N/A   Clear
12:53 PM 91.0 °F - 46.0 °F 21% 29.74 in 10.0 mi Calm Calm - N/A   Clear
1:53 PM 91.9 °F - 43.0 °F 18% 29.71 in 10.0 mi Calm Calm - N/A   Clear
2:53 PM 95.0 °F - 42.1 °F 16% 29.67 in 10.0 mi SSE 6.9 mph - N/A   Clear
3:53 PM 96.1 °F - 39.9 °F 14% 29.65 in 10.0 mi South 4.6 mph - N/A   Clear
4:53 PM 98.1 °F - 36.0 °F 11% 29.62 in 10.0 mi Variable 3.5 mph - N/A   Clear
5:53 PM 93.0 °F - 43.0 °F 18% 29.63 in 10.0 mi NNE 20.7 mph 25.3 mph N/A   Clear
6:53 PM 91.9 °F - 39.0 °F 16% 29.64 in 10.0 mi Variable 6.9 mph - 0.00 in Rain Light Rain
7:02 PM 93.2 °F - 33.8 °F 12% 29.90 in 1.5 mi WSW 27.6 mph 50.6 mph N/A   Haze
7:17 PM 93.2 °F - 35.6 °F 13% 29.88 in 10.0 mi Calm Calm - N/A   Partly Cloudy
7:53 PM 93.0 °F - 36.0 °F 13% 29.62 in 10.0 mi Calm Calm - N/A   Clear
8:53 PM 82.0 °F 81.2 °F 53.1 °F 37% 29.68 in 7.0 mi ESE 16.1 mph 25.3 mph N/A   Scattered Clouds
9:53 PM 80.1 °F - 51.1 °F 36% 29.71 in 10.0 mi East 9.2 mph - N/A   Clear
10:53 PM 78.1 °F - 48.9 °F 36% 29.74 in 10.0 mi ENE 10.4 mph - N/A   Clear
11:53 PM 75.9 °F - 48.9 °F 38% 29.75 in 10.0 mi Calm Calm - N/A   Clear